Regional Weather Roundup
Issued by NWS State College, PA

Home | Current Version | Previous Version | Text Only | Print | Product List | Glossary Off
Versions: 1 2 3 4 5 6 7 8 9 10 11 12 13 14 15 16 17 18 19 20 21 22 23 24 25 26 27 28 29 30 31 32 33 34 35 36 37 38 39 40 41 42 43 44 45 46 47 48 49 50

637
ASUS41 KCTP 040403
RWRCTP

REGIONAL WEATHER ROUNDUP
NATIONAL WEATHER SERVICE STATE COLLEGE PA
1100 PM EST SAT DEC 03 2016

Note: "fair" indicates few or no clouds below 12,000 feet with no
significant weather and/or obstructions to visibility.

* = STATION THAT DOES NOT REPORT PRECIPITATION /E.G. RAIN...SNOW...ETC/
    THUNDER OR FOG.

PAZ002>004-007>009-013>016-020>023-029>032-040500-
WESTERN PENNSYLVANIA

CITY           SKY/WX    TMP DP  RH WIND       PRES   REMARKS
ERIE           CLOUDY    39  34  82 SW6       30.26S
MEADVILLE      CLOUDY    33  31  92 W7        30.25R
FRANKLIN*        N/A     34  28  80 W6        30.26R
NEW CASTLE     CLOUDY    36  28  73 W5        30.29R
BEAVER COUNTY  NOT AVBL
BUTLER*        CLOUDY    36  27  69 W7        30.31R
PITTSBURGH INT CLOUDY    37  28  70 W5        30.28S
PITTSBURGH     CLOUDY    35  24  64 W5        30.27S
INDIANA*       CLOUDY    36  30  80 W8        30.28R
LATROBE        CLOUDY    34  28  80 S6        30.29S
WASHINGTON CO* CLOUDY    36  25  64 CALM      30.29S
$$

PAZ004>006-010>012-017>019-024>028-033>037-041-042-045-046-049>053-040500-
CENTRAL PENNSYLVANIA

CITY           SKY/WX    TMP DP  RH WIND       PRES   REMARKS
BRADFORD       MIX PCPN  33  32  96 W6        30.19R
DUBOIS         LGT SNOW  33  30  88 W7        30.21R VSB 1
CLEARFIELD     CLOUDY    36  33  89 W6        30.22R
JOHNSTOWN      CLOUDY    31  27  85 W10       30.21R
ALTOONA        CLOUDY    36  29  75 W8        30.24S
STATE COLLEGE  CLOUDY    37  32  80 W9        30.22R
WILLIAMSPORT   CLOUDY    41  30  65 W6        30.21R
SELINSGROVE    CLOUDY    41  34  76 CALM      30.23R
FT INDIANTOWN  CLOUDY    42  30  62 NW7       30.20S
CAPITAL CITY   CLOUDY    45  28  51 W12       30.22R
HARRISBURG     CLOUDY    44  32  62 NW14      30.21S
YORK           CLOUDY    42  32  67 W5        30.23R
$$

PAZ038>040-043-044-047-048-054-055-060>062-067>071-040500-
EASTERN PENNSYLVANIA

CITY           SKY/WX    TMP DP  RH WIND       PRES   REMARKS
SCRANTON       CLOUDY    38  25  59 N18G25    30.17R
MOUNT POCONO   CLOUDY    32  23  69 NW18G28   30.10R
ALLENTOWN      CLOUDY    43  24  47 NW13      30.18R
QUAKERTOWN*    CLOUDY    41  25  52 NW9       30.19R
READING        CLOUDY    43  29  57 NW13      30.20R
LANCASTER      CLOUDY    43  33  68 NW6       30.21R
COATESVILLE    CLOUDY    43  32  65 NW9       30.20S
POTTSTOWN      CLOUDY    43  30  60 W8        30.20R
BLUE BELL      CLOUDY    43  32  65 CALM      30.18R
DOYLESTOWN     CLOUDY    44  26  49 NW8       30.18R
WILLOW GROVE   NOT AVBL
NORTH PHILA    CLOUDY    45  31  58 NW7       30.20R
PHILADELPHIA   CLOUDY    47  29  49 NW12G21   30.20R
$$




USA.gov is the U.S. government's official web portal to all federal, state and local government web resources and services.